Change the Weather History Date:

Thursday, August 29, 2013

  Actual Average Record
Temperature  
Mean Temperature 68 °F 65 °F  
Max Temperature 74 °F 74 °F 98 °F (1968)
Min Temperature 61 °F 56 °F 49 °F (1955)
Degree Days  
Heating Degree Days 0 2  
Month to date heating degree days 36 43  
Since 1 June heating degree days 202 213  
Since 1 July heating degree days 114 108  
Cooling Degree Days 3 1  
Month to date cooling degree days 24 29  
Year to date cooling degree days 96 93  
Since 1 June cooling degree days 69 74  
Growing Degree Days 18 (Base 50)    
Moisture  
Dew Point 58 °F    
Average Humidity 75    
Maximum Humidity 93    
Minimum Humidity 57    
Precipitation  
Precipitation 0.00 in 0.01 in 0.14 in (1992)
Month to date precipitation T 0.04  
Year to date precipitation 1.89 13.12  
Since 1 July precipitation T 0.04  
Sea Level Pressure  
Sea Level Pressure 30.02 in    
Wind  
Wind Speed 11 mph (WNW)    
Max Wind Speed 23 mph    
Max Gust Speed 28 mph    
Visibility 10 miles    
Events      
T = Trace of Precipitation, MM = Missing Value Source: NWS Daily Summary

Daily Weather History Graph

Daily Weather History Graph

Search for Another Location

Airport or City:

Trip Planner

Search our weather history database for the weather conditions in past years. The results will help you decide how hot, cold, wet, or windy it might be!

Date:

Astronomy

Aug. 29, 2013 Rise Set
Actual Time 6:37 AM PDT 7:42 PM PDT
Civil Twilight 6:10 AM PDT 8:09 PM PDT
Nautical Twilight 5:38 AM PDT 8:41 PM PDT
Astronomical Twilight 5:05 AM PDT 9:14 PM PDT
Moon 12:36 AM PDT (8/29) 3:12 PM PDT (8/29)
Length of Visible Light 13h 58m
Length of Day
13h 04m
Last Quarter, 37% of the Moon is Illuminated
Aug 29
Last Quarter
Sep 5
New
Sep 12
First Quarter
Sep 19
Full
Sep 26
Last Quarter

Hourly Weather History & Observations

Time (PDT) Temp. Dew Point Humidity Pressure Visibility Wind Dir Wind Speed Gust Speed Precip Events Conditions
12:19 AM 62.6 °F 57.2 °F 82% 29.97 in 10.0 mi WNW 10.4 mph - N/A   Mostly Cloudy
12:56 AM 62.1 °F 57.0 °F 84% 29.98 in 10.0 mi West 8.1 mph - N/A   Mostly Cloudy
1:18 AM 60.8 °F 57.2 °F 88% 29.98 in 10.0 mi West 5.8 mph - N/A   Overcast
1:56 AM 61.0 °F 57.9 °F 90% 29.98 in 10.0 mi WNW 4.6 mph - N/A   Mostly Cloudy
2:56 AM 62.1 °F 57.0 °F 84% 29.98 in 10.0 mi West 5.8 mph - N/A   Mostly Cloudy
3:56 AM 62.1 °F 57.0 °F 84% 29.98 in 10.0 mi WNW 4.6 mph - N/A   Mostly Cloudy
4:56 AM 61.0 °F 57.0 °F 87% 29.99 in 10.0 mi Calm Calm - N/A   Mostly Cloudy
5:56 AM 62.1 °F 55.9 °F 80% 30.00 in 10.0 mi Calm Calm - N/A   Scattered Clouds
6:56 AM 62.1 °F 57.0 °F 84% 30.02 in 10.0 mi Calm Calm - N/A   Scattered Clouds
7:11 AM 62.6 °F 57.2 °F 82% 30.02 in 10.0 mi Calm Calm - N/A   Mostly Cloudy
7:56 AM 63.0 °F 57.9 °F 84% 30.04 in 10.0 mi Calm Calm - N/A   Mostly Cloudy
8:56 AM 64.9 °F 59.0 °F 81% 30.05 in 10.0 mi NNW 3.5 mph - N/A   Overcast
9:56 AM 66.9 °F 59.0 °F 76% 30.06 in 10.0 mi WNW 6.9 mph - N/A   Overcast
10:56 AM 69.1 °F 59.0 °F 70% 30.06 in 10.0 mi WNW 8.1 mph - N/A   Mostly Cloudy
11:56 AM 72.0 °F 59.0 °F 64% 30.07 in 10.0 mi WNW 12.7 mph - N/A   Partly Cloudy
12:56 PM 71.1 °F 59.0 °F 66% 30.06 in 10.0 mi WNW 16.1 mph - N/A   Partly Cloudy
1:56 PM 73.0 °F 57.9 °F 59% 30.06 in 10.0 mi WNW 17.3 mph - N/A   Partly Cloudy
2:56 PM 73.0 °F 57.9 °F 59% 30.04 in 10.0 mi WNW 18.4 mph - N/A   Partly Cloudy
3:56 PM 73.0 °F 59.0 °F 61% 30.03 in 10.0 mi WNW 20.7 mph - N/A   Partly Cloudy
4:56 PM 71.1 °F 57.9 °F 63% 30.02 in 10.0 mi West 20.7 mph - N/A   Partly Cloudy
5:56 PM 68.0 °F 57.9 °F 70% 30.01 in 10.0 mi West 16.1 mph 26.5 mph N/A   Partly Cloudy
6:56 PM 66.9 °F 57.9 °F 73% 30.00 in 10.0 mi West 20.7 mph 25.3 mph N/A   Partly Cloudy
7:56 PM 64.9 °F 59.0 °F 81% 30.00 in 10.0 mi West 17.3 mph - N/A   Partly Cloudy
8:56 PM 64.9 °F 59.0 °F 81% 30.03 in 10.0 mi West 20.7 mph - N/A   Partly Cloudy
9:46 PM 64.4 °F 60.8 °F 88% 30.04 in 10.0 mi West 17.3 mph - N/A   Mostly Cloudy
9:56 PM 64.0 °F 60.1 °F 87% 30.04 in 10.0 mi WNW 16.1 mph 24.2 mph N/A   Mostly Cloudy
10:56 PM 63.0 °F 60.1 °F 90% 30.05 in 10.0 mi WNW 13.8 mph - N/A   Overcast
11:56 PM 63.0 °F 59.0 °F 87% 30.05 in 10.0 mi West 13.8 mph - N/A   Overcast